星链-35974(STARLINK-35974)

导读

STARLINK-35974是美国于2025年12月2日发射的星链卫星,隶属于SpaceX打造的星链星座项目。该星座旨在为全球用户提供覆盖偏远地区、海洋空域的高速低延迟互联网服务。作为低轨卫星星座的组成单元,它依托近地轨道部署优势,可降低通信延迟,持续拓展全球卫星互联网的覆盖范围与服务能力。

Basic Information
目录编号:
66862
目录名称:
STARLINK-35974
国际标识:
2025-281Q
轨道中心:
EARTH
卫星名称:
星链-35974
卫星全名:
星链-35974(STARLINK-35974)
卫星状态:
在轨 (已飞行277 天)
发射日期:
2025-12-02 UTC
国别 :
美国 (US)
星等 :
--
Orbit Information
数据来源 国际轨道数据 AOE轨道数据
星历时间 2026-09-04T20:12:54+0800
12小时前
查看轨道信息
2026-09-01T12:00:00+0800
3天前
查看轨道信息
半长轴 6861.148km 6861.119km
偏心率 0.0002254 0.0001265
轨道倾角 43.004° 43.004°
近地点辐角 268.490° 259.896°
升交点赤经 53.593° 72.470°
平近点角 91.569° 58.410°
近地点 481.464km 482.114km
远地点 484.558km 483.85km
周期 94.266分钟 94.265分钟
每日圈数 15.275928 15.276025
Detailed Information
固有亮度:
5
最大亮度:
2.5
卫星平台:
Starlink V1.0
覆盖范围:
全球
运营商:
太空探索技术公司
运营商所在国:
美国
制造商(研发单位):
太空探索技术公司
制造商所在国:
美国
使用方式:
暂无
Satellite Introduction
Starlink 计划是 SpaceX 推出的全球卫星互联网项目,通过发射低轨道卫星,为全球尤其是偏远地区提供高速、低延迟的互联网服务。自 2019 年起,Starlink 已部署数千颗卫星,旨在缩小全球数字鸿沟,推动互联网普及。该项目还为军事、航空等行业提供通信支持,带来广泛经济效益。
2D Orbit Map
3D Orbit Map
Orbit Altitude Analysis Chart
Orbit Inclination Analysis Chart
Orbit Comprehensive Analysis Chart
View Comprehensive Chart
Conjunction Data List
Event ID Objects TCA Miss Dist (km) Collision Risk Probability Collision Risk Index (CRI) Action
CDM_260907-014005-985506-686221
2026-09-07T
01:40:37+0000
0.429 km
远距离
1.788695E-4 高风险 0.8
CDM_260906-135405-985506-686221
2026-09-06T
13:54:27+0000
0.768 km
远距离
3.643444E-5 中风险 0.66
CDM_260906-122005-985506-686221
2026-09-06T
12:20:18+0000
1.298 km
极远距离
6.135765E-6 低风险 0.51
CDM_260907-000605-985506-686221
2026-09-07T
00:06:27+0000
1.930 km
极远距离
1.857235E-6 低风险 0.4
CDM_260904-220106-441406-686221
2026-09-04T
22:01:30+0000
2.664 km
极远距离
1.088939E-6 低风险 0.36
CDM_260907-031405-985506-686221
2026-09-07T
03:14:46+0000
2.611 km
极远距离
1.004771E-6 低风险 0.35
CDM_260906-152805-985506-686221
2026-09-06T
15:28:36+0000
2.765 km
极远距离
9.250757E-7 极低风险 0.34
CDM_260906-161405-290706-686221
2026-09-06T
16:14:28+0000
2.536 km
极远距离
8.796609E-7 极低风险 0.34